N0XUT Weather Reports


Display with metric or nautical units.
time (UTC)temp
F
wind
direction
speed
MPH
gust
MPH
rain 1hr
in
rain 24hr
in
rain mn
in
humidity
%
barometer
mb
20260903010001 80 42 1.0 3.0 0.00 0.00 0.00 87 1008.7
20260903003001 80 130 1.0 2.0 0.00 0.00 0.00 86 1008.6
20260903000001 82 84 1.0 3.0 0.00 0.00 0.00 82 1008.8
20260902234501 83 117 0.0 3.0 0.00 0.00 0.00 78 1009.1
20260902233001 82 57 0.0 3.0 0.00 0.00 0.00 78 1009.2
20260902231501 82 57 2.0 3.0 0.00 0.00 0.00 82 1009.2
20260902230001 82 97 2.0 5.0 0.00 0.00 0.00 81 1009.4
20260902224501 84 144 2.0 3.0 0.00 0.00 0.00 79 1010.0
20260902223001 85 323 0.0 2.0 0.00 0.00 0.00 73 1010.1
20260902221501 85 58 1.0 3.0 0.00 0.00 0.00 72 1009.8
20260902220001 85 82 2.0 8.0 0.00 0.00 0.00 71 1009.2
20260902214501 86 66 3.0 5.0 0.00 0.00 0.00 71 1009.7
20260902213001 87 23 2.0 6.0 0.00 0.00 0.00 69 1010.1
20260902203001 92 79 1.0 3.0 0.00 0.00 0.00 54 1010.2
20260902201501 92 318 2.0 5.0 0.00 0.00 0.00 52 1010.3
20260902200001 92 288 2.0 5.0 0.00 0.00 0.00 52 1010.3
20260902194501 91 30 3.0 7.0 0.00 0.00 0.00 52 1010.4
20260902193001 91 338 5.0 8.0 0.00 0.00 0.00 54 1010.5
20260902191501 92 239 3.0 8.0 0.00 0.00 0.00 54 1010.7
20260902190001 91 300 6.0 9.0 0.00 0.00 0.00 54 1010.8
20260902183001 91 253 5.0 9.0 0.00 0.00 0.00 55 1010.7
20260902181501 90 258 3.0 7.0 0.00 0.00 0.00 56 1010.8
20260902180000 91 255 3.0 7.0 0.00 0.00 0.00 57 1010.9
20260902174501 91 176 2.0 6.0 0.00 0.00 0.00 54 1010.9
20260902173001 90 190 4.0 7.0 0.00 0.00 0.00 56 1011.0
20260902171501 90 172 3.0 5.0 0.00 0.00 0.00 57 1011.3
20260902170001 89 163 2.0 6.0 0.00 0.00 0.00 62 1011.3
20260902163002 87 176 2.0 7.0 0.00 0.00 0.00 67 1011.5
20260902161501 86 227 2.0 6.0 0.00 0.00 0.00 70 1011.4
20260902154501 83 230 3.0 9.0 0.00 0.00 0.00 71 1011.3
20260902153001 83 239 3.0 6.0 0.00 0.00 0.00 72 1011.3
20260902151501 82 231 3.0 6.0 0.00 0.00 0.00 74 1011.1
20260902150001 81 186 2.0 6.0 0.00 0.00 0.00 75 1011.0
20260902144501 80 178 3.0 9.0 0.00 0.00 0.00 79 1010.7
20260902143001 79 166 3.0 8.0 0.00 0.00 0.00 80 1010.8
20260902141501 78 161 3.0 6.0 0.00 0.00 0.00 82 1011.1
20260902134501 75 248 1.0 3.0 0.00 0.00 0.00 84 1011.3
20260902133001 75 281 1.0 2.0 0.00 0.00 0.00 85 1011.4
20260902131501 74 172 0.0 2.0 0.00 0.00 0.00 86 1011.0
20260902130001 73 126 1.0 3.0 0.00 0.00 0.00 87 1011.1
20260902121501 74 188 1.0 3.0 0.00 0.00 0.00 83 1011.4
20260902120001 74 303 1.0 5.0 0.00 0.00 0.00 82 1011.5
20260902113002 74 295 0.0 2.0 0.00 0.00 0.00 82 1011.4
20260902110002 76 163 1.0 3.0 0.00 0.00 0.00 78 1011.7
20260902103001 77 290 2.0 12.0 0.00 0.00 0.00 76 1011.4
20260902101502 76 341 5.0 12.0 0.00 0.00 0.00 78 1011.3
20260902100001 76 354 6.0 12.0 0.00 0.00 0.00 77 1011.1
20260902093002 77 212 3.0 7.0 0.00 0.00 0.00 75 1010.6
20260902091502 77 187 3.0 8.0 0.00 0.00 0.00 75 1010.5
20260902090001 77 182 2.0 8.0 0.00 0.00 0.00 75 1010.6
20260902084501 77 198 3.0 6.0 0.00 0.00 0.00 75 1010.6
20260902083002 78 198 2.0 7.0 0.00 0.00 0.00 74 1010.8
20260902081502 78 190 3.0 12.0 0.00 0.00 0.00 73 1010.7
20260902074502 79 214 3.0 10.0 0.00 0.00 0.00 72 1010.5
20260902073001 79 193 3.0 10.0 0.00 0.00 0.00 71 1010.3
20260902071501 79 199 2.0 7.0 0.00 0.00 0.00 71 1010.2
20260902070002 79 199 5.0 9.0 0.00 0.00 0.00 70 1010.2
20260902064502 80 182 4.0 10.0 0.00 0.00 0.00 70 1010.1
20260902054502 80 192 3.0 9.0 0.00 0.00 0.00 71 1010.4
20260902053001 80 193 4.0 13.0 0.00 0.00 0.00 71 1010.4
20260902044501 80 176 6.0 14.0 0.00 0.00 0.00 74 1010.3
20260902040002 80 177 4.0 8.0 0.00 0.00 0.00 77 1010.6
20260902034502 81 173 3.0 8.0 0.00 0.00 0.00 77 1010.6
20260902033001 80 174 3.0 8.0 0.00 0.00 0.00 79 1010.7
20260902030002 80 167 2.0 5.0 0.00 0.00 0.00 81 1010.5
20260902024501 82 157 2.0 6.0 0.00 0.00 0.00 79 1010.4
20260902023002 82 153 3.0 5.0 0.00 0.00 0.00 78 1010.3
20260902021502 82 161 1.0 3.0 0.00 0.00 0.00 78 1010.3
20260902020002 83 157 0.0 2.0 0.00 0.00 0.00 77 1010.2
20260902013002 84 171 0.0 2.0 0.00 0.00 0.00 77 1010.0
20260902011502 84 126 0.0 3.0 0.00 0.00 0.00 76 1009.9